Regional Weather Roundup
Issued by NWS

Home | Current Version | Previous Version | Text Only | Print | Product List | Glossary On
Versions: 1 2 3 4 5 6 7 8 9 10 11 12 13 14 15 16 17 18 19 20 21 22 23 24 25 26 27 28 29 30 31 32 33 34 35 36 37 38 39 40 41 42 43 44 45 46 47 48 49 50
817
ASPQ40 PGUM 280012
RWRPQ
WEATHER ROUNDUP FOR THE MARIANAS AND MICRONESIA
NATIONAL WEATHER SERVICE TIYAN GU
1000 AM CHST FRI APR 28 2017

GUZ001>004-280100-
MARIANA ISLANDS-

CITY           SKY/WX    TMP DP  RH WIND       PRES   REMARKS
GUAM AIRPORT   PTSUNNY   82  79  89 SE9       29.94R HX  93
ANDERSEN AFB   PTSUNNY   84  77  79 S14       29.94S HX  94
ROTA AIRPORT   PTSUNNY   82  75  78 SE12      29.94R
TINIAN AP      PTSUNNY   84  73  70 E10       29.92R HX  91
SAIPAN AP      MOSUNNY   84  75  74 SE12      29.94R HX  92

$$

PMZ161-280100-
REPUBLIC OF PALAU-

CITY           SKY/WX    TMP DP  RH WIND       PRES   REMARKS
KOROR AP       PTSUNNY   82  77  83 S6        29.86R HX  91
KOROR WSO      CLOUDY    84  79  84 S7        29.88R HX  96

$$

PMZ171>174-280100-
FEDERATED STATES OF MICRONESIA-

CITY           SKY/WX    TMP DP  RH WIND       PRES   REMARKS
YAP AIRPORT    PTSUNNY   84  79  84 VRB5      29.88R HX  96
CHUUK AP       MOSUNNY   86  79  79 VRB6      29.88F HX  99
POHNPEI AP     MOSUNNY   90  77  66 E12       29.88S HX 102
POHNPEI WSO    NOT AVBL
KOSRAE AP      CLOUDY    88  75  66 NE9       29.86F HX  97

$$

PMZ181-280100-
REPUBLIC OF THE MARSHALL ISLANDS-

CITY           SKY/WX    TMP DP  RH WIND       PRES   REMARKS
KWAJALEIN AP   SUNNY     88  72  58 E20       29.89F HX  94
MAJURO AP      PTSUNNY   84  77  79 E16       29.89S HX  94
MAJURO WSO     PTSUNNY   84  77  79 E18       29.87  HX  94

$$





USA.gov is the U.S. government's official web portal to all federal, state and local government web resources and services.